DW8569 Weather Reports


time (UTC)temp
F
wind
direction
speed
knots
gust
knots
rain 1hr
in
rain 24hr
in
rain mn
in
humidity
%
barometer
mb
20260506161523 68 127 0.0 2.6 0.00 0.00 0.00 63 1008.4
20260506160021 70 119 0.0 2.6 0.00 0.00 0.00 67 1008.4
20260506154520 71 140 0.0 4.3 0.00 0.00 0.00 66 1008.5
20260506153025 70 232 0.0 1.7 0.00 0.00 0.00 65 1008.3
20260506151518 70 113 0.0 0.9 0.00 0.00 0.00 65 1008.5
20260506150017 71 92 0.0 2.6 0.00 0.00 0.00 63 1008.6
20260506144534 71 171 0.0 2.6 0.00 0.00 0.00 60 1008.6
20260506143013 70 169 0.0 2.6 0.00 0.00 0.00 58 1008.5
20260506141510 69 154 0.0 4.3 0.00 0.00 0.00 57 1008.5
20260506140009 69 111 0.0 3.5 0.00 0.00 0.00 54 1008.5
20260506134509 68 171 0.0 1.7 0.00 0.00 0.00 50 1008.5
20260506133007 67 163 0.0 0.9 0.00 0.00 0.00 47 1008.6
20260506131506 66 186 0.0 0.9 0.00 0.00 0.00 46 1008.8
20260506130006 65 125 0.0 0.0 0.00 0.00 0.00 46 1008.8
20260506124504 64 347 0.0 0.9 0.00 0.00 0.00 46 1008.8
20260506123003 64 146 0.0 1.7 0.00 0.00 0.00 46 1008.8
20260506121501 64 144 0.0 0.9 0.00 0.00 0.00 46 1008.8
20260506120001 64 153 0.0 2.6 0.00 0.00 0.00 46 1009.0
20260506114501 65 256 0.0 2.6 0.00 0.00 0.00 46 1008.9
20260506113100 66 240 0.0 0.0 0.00 0.00 0.00 46 1009.1
20260506111556 67 240 0.0 4.3 0.00 0.00 0.00 46 1009.1
20260506110055 69 264 0.0 0.9 0.00 0.00 0.00 46 1009.0
20260506104600 69 265 0.0 1.7 0.00 0.00 0.00 46 1008.9
20260506103054 70 262 0.0 1.7 0.00 0.00 0.00 46 1009.0
20260506101548 69 262 0.0 1.7 0.00 0.00 0.00 46 1008.8
20260506094545 68 271 0.0 4.3 0.00 0.00 0.00 46 1008.7
20260506093045 68 277 0.0 1.7 0.00 0.00 0.00 46 1008.7
20260506091541 68 279 0.0 1.7 0.00 0.00 0.00 46 1008.8
20260506090042 67 355 0.0 0.9 0.00 0.00 0.00 46 1008.8
20260506084540 67 202 0.0 0.9 0.00 0.00 0.00 46 1008.9
20260506083037 66 221 0.0 0.9 0.00 0.00 0.00 46 1008.9
20260506081533 66 267 0.0 4.3 0.00 0.00 0.00 46 1009.1
20260506073030 63 266 0.0 2.6 0.00 0.00 0.00 46 1009.1
20260506071528 63 260 0.0 2.6 0.00 0.00 0.00 46 1009.2
20260506061523 63 184 0.0 0.0 0.00 0.00 0.00 54 1009.2
20260506044512 64 173 0.0 3.5 0.00 0.00 0.00 75 1009.6
20260506043009 64 180 0.0 3.5 0.00 0.00 0.00 78 1009.6
20260506041506 65 273 0.0 1.7 0.00 0.00 0.00 82 1009.6
20260506040004 65 267 0.0 1.7 0.00 0.00 0.00 85 1009.6
20260506034505 66 110 0.0 4.3 0.00 0.00 0.00 87 1009.6
20260506033004 66 277 0.0 4.3 0.00 0.00 0.00 89 1009.5
20260506031503 67 18 0.0 0.9 0.00 0.00 0.00 90 1009.5
20260506030004 67 276 0.0 2.6 0.00 0.00 0.00 91 1009.5
20260506024503 67 206 0.0 2.6 0.00 0.00 0.00 91 1009.5
20260506023001 67 264 0.0 1.7 0.00 0.00 0.00 92 1009.5
20260506021604 68 250 0.0 0.9 0.00 0.00 0.00 92 1009.5
20260506020100 68 153 0.0 2.6 0.00 0.00 0.00 93 1009.3
20260506014600 68 263 0.0 0.9 0.00 0.00 0.00 94 1009.4
20260506013110 69 267 0.0 4.3 0.00 0.00 0.00 94 1009.2
20260506011601 70 269 0.0 4.3 0.00 0.00 0.00 95 1009.1
20260506010119 71 258 0.0 2.6 0.00 0.00 0.00 95 1009.0
20260506004557 72 253 0.0 3.5 0.00 0.00 0.00 95 1008.8
20260506003112 74 263 0.0 4.3 0.00 0.00 0.00 92 1008.5
20260506001602 75 243 0.0 0.9 0.00 0.00 0.00 87 1008.3
20260506000055 76 167 0.0 1.7 0.00 0.00 0.00 86 1008.2
20260505234554 77 231 0.0 0.9 0.00 0.00 0.00 85 1008.1
20260505233105 78 213 0.0 4.3 0.00 0.00 0.00 83 1007.9
20260505231553 78 182 0.0 0.9 0.00 0.00 0.00 81 1007.5
20260505230056 79 191 0.0 3.5 0.00 0.00 0.00 80 1007.5
20260505224552 80 194 0.0 0.9 0.00 0.00 0.00 78 1007.2
20260505223052 81 196 0.0 0.9 0.00 0.00 0.00 76 1007.2
20260505221551 81 155 0.0 2.6 0.00 0.00 0.00 75 1007.0
20260505220050 82 259 0.0 2.6 0.00 0.00 0.00 77 1006.8
20260505214604 82 125 0.0 4.3 0.00 0.00 0.00 77 1006.8
20260505213050 82 116 0.0 7.0 0.00 0.00 0.00 78 1006.7
20260505211549 83 267 0.0 7.0 0.00 0.00 0.00 77 1006.6
20260505210048 83 140 0.0 3.5 0.00 0.00 0.00 77 1006.6
20260505204548 84 275 0.0 4.3 0.00 0.00 0.00 76 1006.5
20260505203047 84 149 0.0 4.3 0.00 0.00 0.00 75 1006.8
20260505201551 84 130 0.0 1.7 0.00 0.00 0.00 75 1006.7
20260505200044 84 140 0.0 3.5 0.00 0.00 0.00 75 1006.8
20260505194543 84 237 0.0 2.6 0.00 0.00 0.00 74 1006.9
20260505193042 84 121 0.0 3.5 0.00 0.00 0.00 75 1007.2
20260505191541 84 71 0.0 3.5 0.00 0.00 0.00 76 1007.4
20260505190039 84 269 0.0 5.2 0.00 0.00 0.00 77 1007.7
20260505184535 84 207 0.0 3.5 0.00 0.00 0.00 77 1007.9
20260505183049 85 233 0.0 0.9 0.00 0.00 0.00 80 1008.1
20260505181534 85 239 0.0 3.5 0.00 0.00 0.00 77 1008.2
20260505180030 86 178 0.0 1.7 0.00 0.00 0.00 77 1008.4
20260505174529 87 276 0.0 2.6 0.00 0.00 0.00 78 1008.5
20260505173037 87 245 0.0 1.7 0.00 0.00 0.00 77 1008.7
20260505171540 87 239 0.0 1.7 0.00 0.00 0.00 78 1008.9
20260505170024 87 267 0.0 1.7 0.00 0.00 0.00 79 1008.9
20260505164522 87 254 0.0 2.6 0.00 0.00 0.00 79 1009.2
20260505163020 87 272 0.0 0.9 0.00 0.00 0.00 78 1009.2